Location: Bothwell
(42.3833°S, 147.0000°E)
Time: 13:56:52
(UTC+11:00)

OBJECT D - Pass Details

Date: 22 November 2025
Orbit: 437 x 585 km, 63.5° (Epoch: 12 December)

Event Time Altitude Azimuth Distance (km) Brightness Sun altitude
Exits shadow 03:02:47 21° 46° (NE) 1,299 ? -21.2°
Maximum altitude 03:03:41 23° 65° (ENE) 1,238 ? -21.1°
Drops below altitude 10° 03:06:52 10° 116° (ESE) 1,819 ? -20.8°
Sets 03:09:27 0° 131° (SE) 2,710 ? -20.6°
